Location: Big Meadows
(38.5260°N, 78.4400°W)
Time: 17:03:40
(UTC-04:00)

Daily predictions for brighter satellites

Satellite Brightness Start Highest point End
(mag) Time Altitude Azimuth Time Altitude Azimuth Time Altitude Azimuth
NOSS 2-1 (E) 3.7 20:17:14 10° S 20:20:55 43° ESE 20:24:57 10° NE
USA 186 3.0 20:19:40 10° SE 20:22:16 23° ENE 20:24:47 10° NNE
BREEZE-M DEB (TANK) 4.3 20:08:21 10° NW 20:23:04 61° SW 20:27:03 10° SSE
OTV 4 0.4 20:21:37 10° W 20:24:35 77° S 20:27:33 10° E
Cosmos 1602 4.3 20:26:29 10° SSW 20:30:24 66° W 20:34:22 10° N
Cosmos 2219 3.3 20:30:13 10° NNW 20:35:52 86° WSW 20:41:29 10° SSE
Delta 2 Rocket 4.1 20:30:38 10° W 20:36:13 65° S 20:41:05 11° E
Cosmos 1777 Rocket 4.3 20:31:23 10° N 20:36:29 50° ENE 20:41:35 10° SE
Cosmos 1544 Rocket 3.7 20:33:33 10° S 20:37:46 51° E 20:42:03 10° NNE
Lacrosse 5 rocket 3.4 20:37:11 10° N 20:38:43 12° NNE 20:40:15 10° NE
Cosmos 1315 Rocket 3.2 20:35:09 10° SSW 20:39:07 70° W 20:43:09 10° N
Cosmos 2208 Rocket 4.4 20:37:01 10° S 20:41:58 42° ESE 20:47:01 10° NNE
Meteor 2-4 Rocket 3.8 20:39:50 10° N 20:45:41 82° E 20:51:37 10° S
Cosmos 1821 Rocket 3.9 20:41:23 10° S 20:47:30 80° E 20:53:36 10° N
CZ-3C R/B 4.2 19:37:46 10° WSW 20:48:08 41° SSW 20:56:56 12° SE
ATLAS CENTAUR R/B 3.7 20:43:50 10° WSW 20:48:25 34° NW 20:52:56 10° NNE
Cosmos 1605 Rocket 4.3 20:44:16 10° SSE 20:50:20 48° E 20:56:20 10° NNE
Cosmos 2278 3.9 20:46:58 10° S 20:52:20 46° ESE 20:57:46 10° NE
ALOS 2.4 20:49:39 10° S 20:54:18 79° WSW 20:59:01 10° NNW
Cosmos 1697 Rocket 4.1 20:54:01 15° ESE 20:55:34 17° E 20:59:02 10° ENE
Cosmos 1939 Rocket 4.1 20:53:26 16° ESE 20:55:37 25° ENE 20:59:03 10° NNE
Lacrosse 5 4.1 20:57:02 10° N 20:59:48 14° NNE 21:02:33 10° NE
Meteor 1-23 Rocket 4.3 20:54:26 10° N 21:00:05 82° W 21:05:47 10° S
NOSS 3-4 (A) 4.0 20:53:24 10° NNW 21:00:21 59° NE 21:06:10 17° SE
NOSS 3-4 (C) 4.0 20:53:30 10° NNW 21:00:27 59° NE 21:06:14 17° SE
H-2A R/B 2.9 20:56:41 10° S 21:00:30 76° WSW 21:04:25 10° NNW
Cosmos 1570 Rocket 3.9 20:56:33 10° S 21:01:49 72° ESE 21:07:06 10° NNE
NOSS 7 (D) 4.4 20:59:40 10° SSW 21:03:11 54° ESE 21:06:29 10° NE
Meteor 2-16 Rocket 4.4 20:57:11 10° S 21:03:16 86° E 21:09:22 10° N
Cosmos 2369 3.8 20:59:20 10° S 21:04:48 53° ESE 21:10:20 10° NNE
SPOT 5 4.3 21:03:42 18° E 21:05:45 23° ENE 21:09:33 10° NNE
YAOGAN 11 4.4 21:02:34 16° SE 21:06:04 50° ENE 21:10:25 10° N
Envisat 3.6 21:08:01 20° SE 21:10:59 39° ENE 21:15:41 10° N
CZ-2D R/B 4.3 21:09:58 10° S 21:13:39 45° W 21:17:24 10° NNW
DELTA 2 R/B (1) 3.6 21:08:51 10° W 21:14:26 79° N 21:18:27 19° E
Cosmos 1980 Rocket 4.1 21:19:03 12° ENE 21:19:03 12° ENE 21:19:51 10° ENE
Cosmos 2123 Rocket 4.0 21:13:42 10° N 21:19:55 89° W 21:26:05 10° S
Hubble Space Telescope 2.5 21:17:55 10° SW 21:20:50 18° S 21:21:38 18° S
Cosmos 1346 Rocket 3.0 21:20:52 10° NNW 21:24:47 70° W 21:27:52 16° S
CZ-4 DEB 2.8 21:30:12 36° S 21:31:19 72° W 21:34:28 10° NNW
H-2A R/B 2.4 21:32:15 39° E 21:32:58 43° ENE 21:36:52 10° N
deb Chang Zheng 4 3.7 21:30:01 10° NNE 21:34:22 51° E 21:35:52 35° SSE
Cosmos 1459 Rocket 4.2 21:36:29 30° SE 21:38:57 45° E 21:44:41 10° NNE
Iridium 4 Rocket 3.3 21:34:05 10° N 21:39:20 86° E 21:42:11 25° S
Cosmos 1626 Rocket 3.4 21:34:57 10° N 21:39:24 85° E 21:41:12 35° S
ASTEX 1 4.2 21:35:47 10° NNE 21:40:10 32° E 21:40:10 32° E
Cosmos 1455 Rocket 4.5 21:38:02 10° SSW 21:42:03 37° WNW 21:46:06 10° N
SL-24 R/B - RUBIN 2 4.3 21:37:09 10° SSW 21:42:44 58° ESE 21:48:59 10° NE
Cosmos 2227 Rocket 2.1 21:38:05 10° NNW 21:43:48 87° WSW 21:46:31 32° SSE
Cosmos 1153 Rocket 4.4 21:38:09 10° S 21:44:23 89° E 21:50:35 10° N
Tiangong 1 2.2 21:41:45 10° WNW 21:44:41 38° N 21:45:06 36° NNE
NOSS 7 (H) 4.4 21:41:30 10° SW 21:44:43 71° WNW 21:48:05 10° NNE
Cosmos 1602 Rocket 3.6 21:42:24 10° N 21:46:54 80° W 21:48:43 35° S
Cosmos 1898 Rocket 3.8 21:44:19 10° N 21:49:27 48° ENE 21:50:22 43° E
Cosmos 1500 2.9 21:50:01 78° ESE 21:50:03 78° E 21:53:50 10° N
ERS-1 Rocket 3.3 21:47:20 23° S 21:50:28 64° WSW 21:55:29 10° NNW
MetOp-B 4.3 21:49:40 43° ESE 21:50:54 52° ENE 21:56:05 10° N
Nimbus 7 Rocket 4.3 21:45:47 10° NNE 21:51:51 74° ESE 21:57:02 15° S
Cosmos 2082 3.8 21:49:58 10° NNW 21:55:35 74° WSW 21:57:54 36° S
Terra 3.9 21:56:54 13° NE 21:56:54 13° NE 21:58:26 10° NNE
Cosmos 1802 Rocket 4.1 21:54:07 39° SE 21:56:12 54° E 22:02:26 10° NNE
OAO 2 Rocket 3.6 21:53:34 10° WSW 21:58:17 47° S 21:58:17 47° S
Cosmos 2297 Rocket 2.1 21:54:10 10° NNW 21:59:51 89° WSW 22:01:34 47° SSE
Cosmos 1656 3.6 21:54:55 10° SSW 22:00:34 87° ESE 22:06:10 10° NNE
OTV 4 2.3 21:57:57 10° W 21:59:29 27° W 21:59:29 27° W
Cosmos 1975 4.0 21:59:17 14° SSW 22:02:35 44° W 22:06:32 10° N
Cosmos 1461 3.1 22:02:19 10° NW 22:06:17 59° WSW 22:06:17 59° WSW
Cosmos 1340 4.3 22:06:10 10° N 22:08:04 25° NNE 22:08:04 25° NNE
Cosmos 468 Rocket 3.8 22:09:55 47° SSW 22:11:25 87° ESE 22:16:34 10° NNE
Cosmos 1515 4.4 22:09:34 10° NNW 22:13:18 48° W 22:13:24 48° W
Cosmos 1814 Rocket 3.9 22:16:31 66° S 22:17:16 83° ESE 22:22:37 10° NNE
Cosmos 1743 3.9 22:19:32 38° N 22:19:32 38° N 22:22:02 10° N
Lacrosse 5 rocket 2.2 22:14:52 10° NW 22:17:24 41° NNW 22:17:24 41° NNW
Delta 2 Rocket 4.4 22:13:43 10° W 22:18:11 44° SW 22:18:11 44° SW
Cosmos 2016 Rocket 3.8 22:19:13 62° SE 22:20:02 70° E 22:26:11 10° NNE
Cosmos 2084 4.3 22:21:31 10° NNW 22:24:26 42° N 22:24:26 42° N
USA 215 3.6 22:26:31 45° E 22:28:05 54° NE 22:34:25 10° NW
Cosmos 2298 Rocket 4.3 22:27:53 10° NNW 22:33:08 62° WSW 22:33:29 60° SW
Cosmos 2173 Rocket 4.3 22:30:10 31° SSW 22:33:18 67° W 22:39:38 10° N
YAOGAN 6 4.3 22:34:50 32° NW 22:34:50 32° NW 22:37:06 10° NNW
Cosmos 2061 Rocket 4.3 22:32:02 32° SSW 22:35:05 65° W 22:41:20 10° N
Milstar 3 Cent rocket 3.9 22:19:21 10° W 22:36:04 50° SSW 22:38:08 45° SSE
Cosmos 1697 Rocket 3.1 22:35:31 24° SW 22:38:56 61° WNW 22:44:33 10° NNE
H-2A R/B 3.0 22:41:12 36° NNE 22:41:12 36° NNE 22:44:32 10° N
GEOS 3 Rocket 3.7 22:35:57 10° NNE 22:41:03 73° NW 22:41:24 70° W
Cosmos 2098 Rocket 4.1 22:42:49 72° SSE 22:43:32 81° E 22:49:56 10° N
SPOT 5 3.9 22:42:57 39° WSW 22:43:33 41° W 22:48:15 10° NNW
Lacrosse 5 2.6 22:38:53 10° NW 22:43:01 46° N 22:43:01 46° N
NOAA 11 4.2 22:44:17 79° WNW 22:44:17 79° WNW 22:49:32 10° NNW
Tsikada Rocket 4.1 22:38:42 10° N 22:44:43 63° ENE 22:44:43 63° ENE
Cosmos 1864 Rocket 4.5 22:47:50 68° NE 22:47:50 68° NE 22:53:16 10° N
SPOT 1/Viking Rocket 4.2 22:58:58 51° WNW 22:58:58 51° WNW 23:03:32 10° NNW
Cosmos 1937 Rocket 4.2 22:54:02 10° NNW 22:58:26 50° WNW 22:58:26 50° WNW
Cosmos 1980 Rocket 2.5 23:00:44 62° NNW 23:00:44 62° NNW 23:05:46 10° NNE
DELTA 2 R/B (1) 4.4 22:55:25 10° WNW 22:59:12 44° W 22:59:12 44° W
RESURS DK-1 4.4 22:58:25 10° NNW 23:00:21 26° NW 23:00:21 26° NW
ARGOS 3.9 23:08:12 47° WNW 23:08:12 47° WNW 23:12:46 10° NNW
Cosmos 1725 Rocket 4.3 23:17:04 61° WNW 23:17:04 61° WNW 23:22:54 10° N
Cosmos 2322 Rocket 4.0 23:33:40 24° NNE 23:33:40 24° NNE 23:35:45 10° NNE
Cosmos 2263 Rocket 3.8 23:28:05 10° N 23:31:08 27° NNE 23:31:08 27° NNE
Terra 3.7 23:35:48 27° NNW 23:35:48 27° NNW 23:38:00 10° NNW
